Tracking 25648 objects as of 16-May-2022
HD Live streaming from Space Station
objects crossing your sky now

COSMOS 2251 DEB

Track COSMOS 2251 DEB now!
10-day predictions


NORAD ID: 33822
Int'l Code: 1993-036BP
Perigee: 764.3 km
Apogee: 1,020.1 km
Inclination: 74.1 °
Period: 102.7 minutes
Semi major axis: 7263 km
RCS: 0.037 m2 (small)
Launch date: June 16, 1993
Source: Commonwealth of Independent States (former USSR) (CIS)
Launch site: PLESETSK MISSILE AND SPACE COMPLEX (PKMTR)

Note: This is SATELLITE DEBRIS
aabbcc
Your satellite tracking list
Your tracking list is empty




NASA's NSSDC Master Catalog

Two Line Element Set (TLE):
1 33822U 93036BP  22135.96325446  .00001518  00000-0  87468-3 0  9992
2 33822  74.0784 317.1281 0176131 323.3439 160.1326 14.02526725676742
Source of the keplerian elements: AFSPC